Location: Unspecified
(0.0000°N, 0.0000°E)
Time: 02:47:59
(UTC-05:00)

Hubble Space Telescope - Visible Passes

Search period start: 17 October 2017 00:00
Search period end: 27 October 2017 00:00
Orbit: 537 x 541 km, 28.5° (Epoch: 16 October)

Date Brightness Start Highest point End Pass type
(mag) Time Alt. Az. Time Alt. Az. Time Alt. Az.
17 Oct 3.3 13:29:34 10° WNW 13:31:46 14° NNW 13:33:57 10° N visible
17 Oct 0.8 23:43:18 28° WNW 23:45:23 69° SSW 23:49:31 10° SE visible
18 Oct 3.6 13:21:20 10° NNW 13:21:40 10° NNW 13:22:01 10° NNW visible
18 Oct 1.2 23:34:02 35° WSW 23:35:13 47° SSW 23:39:13 10° SE visible
19 Oct 1.7 23:24:43 32° SW 23:25:02 33° SSW 23:28:48 10° SE visible
20 Oct 2.4 23:15:20 23° SSW 23:15:20 23° SSW 23:18:16 10° SSE visible
21 Oct 3.0 23:05:54 16° S 23:05:54 16° S 23:07:33 10° SSE visible
22 Oct 3.5 22:56:24 10° S 22:56:24 10° S 22:56:32 10° S visible
